Location: Newark
(40.9833°N, 0.0333°W)
Time: 03:48:04
(UTC+00:00)

Transit 2A Rocket - Pass Details

Date: 04 November 2020
Orbit: 588 x 914 km, 66.7° (Epoch: 26 November)

Event Time Altitude Azimuth Distance (km) Brightness Sun altitude
Rises 09:12:17 0° 247° (WSW) 3,539 8.3 23.5°
Reaches altitude 10° 09:15:19 10° 260° (W) 2,590 7.5 23.8°
Maximum altitude 09:20:10 24° 314° (NW) 1,740 6.5 24.4°
Drops below altitude 10° 09:24:52 10° 7° (N) 2,498 7.3 24.9°
Sets 09:27:45 0° 21° (NNE) 3,387 8.0 25.3°
